Weather History for Morgantown, WV

Change the Weather History Date:

Monday, May 21, 2012

  Actual Average Record
Temperature  
Mean Temperature 68 °F 62 °F  
Max Temperature 78 °F 73 °F 90 °F (1977)
Min Temperature 57 °F 52 °F 31 °F (1990)
Degree Days  
Heating Degree Days 0 5  
Month to date heating degree days 57 134  
Since 1 July heating degree days 4126 5117  
Cooling Degree Days 3 2  
Month to date cooling degree days 57 28  
Year to date cooling degree days 92 44  
Growing Degree Days 17 (Base 50)    
Moisture  
Dew Point 57 °F    
Average Humidity 71    
Maximum Humidity 87    
Minimum Humidity 54    
Precipitation  
Precipitation 0.00 in 0.15 in 0.69 in (2004)
Month to date precipitation 3.01 3.05  
Year to date precipitation 11.99 15.63  
Sea Level Pressure  
Sea Level Pressure 30.01 in    
Wind  
Wind Speed 2 mph (ENE)    
Max Wind Speed 12 mph    
Max Gust Speed 17 mph    
Visibility 10 miles    
Events      
T = Trace of Precipitation, MM = Missing Value Source: NWS Daily Summary

Daily Weather History Graph

Daily Weather History Graph

Search for Another Location

Airport:

Trip Planner

Search our weather history database for the weather conditions in past years. The results will help you decide how hot, cold, wet, or windy it might be!

Date:

Astronomy

May. 21, 2012 Rise Set
Actual Time 6:00 AM EDT 8:33 PM EDT
Civil Twilight 5:28 AM EDT 9:04 PM EDT
Nautical Twilight 4:50 AM EDT 9:42 PM EDT
Astronomical Twilight 4:07 AM EDT 10:26 PM EDT
Moon 6:21 AM EDT (5/21) 9:21 PM EDT (5/21)
Length of Visible Light 15h 35m
Length of Day
14h 33m
New Moon, 0% of the Moon is Illuminated
May 21
New Moon
May 28
First Quarter
Jun 4
Full
Jun 11
Last Quarter
Jun 19
New

Hourly Weather History & Observations

Time (EDT) Temp. Dew Point Humidity Pressure Visibility Wind Dir Wind Speed Gust Speed Precip Events Conditions
12:53 AM 66.9 °F 50.0 °F 54% 30.06 in 10.0 mi ESE 8.1 mph - N/A   Clear
1:53 AM 64.0 °F 51.1 °F 63% 30.06 in 10.0 mi NNW 3.5 mph - N/A   Clear
2:53 AM 63.0 °F 52.0 °F 67% 30.06 in 10.0 mi Calm Calm - N/A   Clear
3:53 AM 63.0 °F 52.0 °F 67% 30.06 in 10.0 mi Calm Calm - N/A   Clear
4:53 AM 62.1 °F 53.1 °F 72% 30.06 in 10.0 mi East 3.5 mph - N/A   Clear
5:53 AM 57.9 °F 53.1 °F 84% 30.06 in 10.0 mi Calm Calm - N/A   Clear
6:53 AM 57.0 °F 54.0 °F 89% 30.07 in 10.0 mi Calm Calm - N/A   Clear
7:53 AM 63.0 °F 55.0 °F 75% 30.06 in 10.0 mi Calm Calm - N/A   Mostly Cloudy
8:43 AM 66.2 °F 57.2 °F 73% 30.07 in 10.0 mi ENE 4.6 mph - N/A   Scattered Clouds
8:53 AM 66.9 °F 57.0 °F 70% 30.05 in 10.0 mi East 3.5 mph - N/A   Scattered Clouds
9:38 AM 68.0 °F 57.2 °F 68% 30.08 in 10.0 mi SE 3.5 mph - N/A   Mostly Cloudy
9:53 AM 68.0 °F 57.9 °F 70% 30.05 in 10.0 mi SE 5.8 mph - N/A   Scattered Clouds
10:03 AM 68.0 °F 57.2 °F 68% 30.07 in 10.0 mi Variable 4.6 mph - N/A   Mostly Cloudy
10:15 AM 68.0 °F 57.2 °F 68% 30.07 in 10.0 mi ESE 4.6 mph - N/A   Scattered Clouds
10:53 AM 69.1 °F 57.9 °F 68% 30.04 in 10.0 mi Calm Calm - N/A   Mostly Cloudy
11:07 AM 69.8 °F 57.2 °F 64% 30.05 in 10.0 mi Calm Calm - N/A   Mostly Cloudy
11:53 AM 72.0 °F 59.0 °F 64% 30.02 in 10.0 mi Calm Calm - N/A   Mostly Cloudy
12:07 PM 71.6 °F 59.0 °F 64% 30.04 in 10.0 mi NE 5.8 mph - N/A   Mostly Cloudy
12:53 PM 73.9 °F 61.0 °F 64% 29.99 in 10.0 mi NNE 6.9 mph - N/A   Overcast
1:53 PM 73.0 °F 60.1 °F 64% 29.99 in 10.0 mi East 3.5 mph - N/A   Overcast
2:53 PM 75.0 °F 61.0 °F 62% 29.96 in 10.0 mi North 3.5 mph - N/A   Overcast
3:53 PM 75.9 °F 57.9 °F 54% 29.94 in 10.0 mi Calm Calm - N/A   Overcast
4:53 PM 77.0 °F 60.1 °F 56% 29.92 in 10.0 mi NE 5.8 mph - N/A   Mostly Cloudy
5:53 PM 73.0 °F 61.0 °F 66% 29.91 in 10.0 mi NNE 8.1 mph - N/A   Partly Cloudy
6:53 PM 73.0 °F 61.0 °F 66% 29.91 in 10.0 mi East 5.8 mph - N/A   Scattered Clouds
7:53 PM 71.1 °F 60.1 °F 68% 29.91 in 10.0 mi ESE 5.8 mph - N/A   Mostly Cloudy
8:53 PM 70.0 °F 60.1 °F 71% 29.90 in 10.0 mi Calm Calm - N/A   Clear
9:53 PM 68.0 °F 60.1 °F 76% 29.91 in 10.0 mi SSE 3.5 mph - N/A   Overcast
10:53 PM 66.9 °F 60.1 °F 79% 29.91 in 10.0 mi Calm Calm - N/A   Clear
11:53 PM 64.0 °F 60.1 °F 87% 29.90 in 10.0 mi Calm Calm - N/A   Clear